Weather History for Fayetteville, NC

Change the Weather History Date:

Monday, April 8, 2013

  Actual Average Record
Temperature  
Mean Temperature 65 °F 61 °F  
Max Temperature 81 °F 73 °F 91 °F (1967)
Min Temperature 49 °F 49 °F 27 °F (2007)
Degree Days  
Heating Degree Days 0 6  
Month to date heating degree days 74 52  
Since 1 July heating degree days 2676 2621  
Cooling Degree Days 0 2  
Month to date cooling degree days 2 10  
Year to date cooling degree days 10 26  
Growing Degree Days 14 (Base 50)    
Moisture  
Dew Point 52 °F    
Average Humidity 67    
Maximum Humidity 100    
Minimum Humidity 33    
Precipitation  
Precipitation 0.00 in 0.11 in 1.70 in (1973)
Month to date precipitation 1.15 0.91  
Year to date precipitation 8.46 10.52  
Sea Level Pressure  
Sea Level Pressure 30.14 in    
Wind  
Wind Speed 7 mph (SSW)    
Max Wind Speed 18 mph    
Max Gust Speed 23 mph    
Visibility 6 miles    
Events Fog    
T = Trace of Precipitation, MM = Missing Value Source: NWS Daily Summary

Daily Weather History Graph

Daily Weather History Graph

Search for Another Location

Airport:

Trip Planner

Search our weather history database for the weather conditions in past years. The results will help you decide how hot, cold, wet, or windy it might be!

Date:

Astronomy

Apr. 08, 2013 Rise Set
Actual Time 6:52 AM EDT 7:42 PM EDT
Civil Twilight 6:26 AM EDT 8:08 PM EDT
Nautical Twilight 5:56 AM EDT 8:38 PM EDT
Astronomical Twilight 5:25 AM EDT 9:10 PM EDT
Moon 5:38 AM EDT (4/8) 6:17 PM EDT (4/8)
Length of Visible Light 13h 41m
Length of Day
12h 50m
Waning Crescent, 3% of the Moon is Illuminated
Apr 8
Waning Crescent
Apr 10
New
Apr 18
First Quarter
Apr 25
Full
May 2
Last Quarter

Hourly Weather History & Observations

Time (EDT) Temp. Dew Point Humidity Pressure Visibility Wind Dir Wind Speed Gust Speed Precip Events Conditions
12:53 AM 59.0 °F 52.0 °F 78% 30.13 in 10.0 mi South 6.9 mph - N/A   Clear
1:53 AM 57.0 °F 53.1 °F 87% 30.13 in 10.0 mi South 5.8 mph - N/A   Clear
2:53 AM 55.9 °F 53.1 °F 90% 30.12 in 10.0 mi SSW 3.5 mph - N/A   Clear
3:53 AM 53.1 °F 51.1 °F 93% 30.11 in 10.0 mi Calm Calm - N/A   Clear
4:53 AM 52.0 °F 51.1 °F 97% 30.12 in 6.0 mi Calm Calm - N/A   Clear
5:29 AM 53.6 °F 51.8 °F 94% 30.14 in 1.5 mi SSW 3.5 mph - N/A   Clear
5:39 AM 51.8 °F 50.0 °F 94% 30.14 in 0.8 mi SSW 3.5 mph - N/A   Mist
5:53 AM 51.1 °F 50.0 °F 96% 30.13 in 0.2 mi Calm Calm - N/A Fog Fog
6:01 AM 51.8 °F 50.0 °F 94% 30.14 in 1.0 mi Calm Calm - N/A   Mist
6:13 AM 51.8 °F 50.0 °F 94% 30.15 in 0.2 mi Calm Calm - N/A Fog Fog
6:24 AM 51.8 °F 50.0 °F 94% 30.15 in 1.0 mi Calm Calm - N/A   Mist
6:27 AM 51.8 °F 50.0 °F 94% 30.15 in 5.0 mi South 3.5 mph - N/A   Mostly Cloudy
6:36 AM 50.0 °F 48.2 °F 94% 30.16 in 8.0 mi Calm Calm - N/A   Scattered Clouds
6:44 AM 51.8 °F 50.0 °F 94% 30.16 in 2.0 mi Calm Calm - N/A   Mostly Cloudy
6:47 AM 51.8 °F 50.0 °F 94% 30.16 in 0.8 mi Calm Calm - N/A   Mist
6:53 AM 51.1 °F 50.0 °F 96% 30.15 in 0.2 mi South 3.5 mph - N/A Fog Fog
7:11 AM 48.2 °F 48.2 °F 100% 30.17 in 0.5 mi Calm Calm - N/A Fog Fog
7:26 AM 51.8 °F 51.8 °F 100% 30.18 in 1.2 mi SSW 3.5 mph - N/A   Mostly Cloudy
7:33 AM 51.8 °F 50.0 °F 94% 30.18 in 0.5 mi South 4.6 mph - N/A Fog Fog
7:48 AM 53.6 °F 53.6 °F 100% 30.19 in 0.2 mi SW 3.5 mph - N/A Fog Fog
7:53 AM 54.0 °F 53.1 °F 97% 30.17 in 0.2 mi Calm Calm - N/A Fog Fog
8:10 AM 53.6 °F 53.6 °F 100% 30.19 in 0.2 mi SSW 3.5 mph - N/A Fog Fog
8:20 AM 55.4 °F 55.4 °F 100% 30.19 in 0.2 mi SSW 4.6 mph - N/A Fog Fog
8:29 AM 55.4 °F 55.4 °F 100% 30.19 in 1.0 mi SSW 4.6 mph - N/A   Mist
8:33 AM 55.4 °F 55.4 °F 100% 30.20 in 3.0 mi SSW 4.6 mph - N/A   Mostly Cloudy
8:53 AM 57.0 °F 55.9 °F 96% 30.18 in 6.0 mi SSW 4.6 mph - N/A   Mostly Cloudy
9:00 AM 57.2 °F 55.4 °F 94% 30.20 in 8.0 mi SSW 4.6 mph - N/A   Scattered Clouds
9:53 AM 64.9 °F 55.9 °F 73% 30.18 in 10.0 mi WSW 8.1 mph - N/A   Partly Cloudy
10:53 AM 71.1 °F 54.0 °F 55% 30.19 in 10.0 mi SW 11.5 mph 18.4 mph N/A   Partly Cloudy
11:53 AM 73.9 °F 54.0 °F 50% 30.17 in 10.0 mi SW 12.7 mph 18.4 mph N/A   Mostly Cloudy
12:02 PM 73.4 °F 53.6 °F 50% 30.18 in 10.0 mi WSW 9.2 mph - N/A   Scattered Clouds
12:53 PM 75.9 °F 48.9 °F 38% 30.16 in 10.0 mi WSW 12.7 mph - N/A   Partly Cloudy
1:53 PM 77.0 °F 51.1 °F 40% 30.12 in 10.0 mi SW 10.4 mph 19.6 mph N/A   Partly Cloudy
2:53 PM 79.0 °F 50.0 °F 36% 30.10 in 10.0 mi SW 6.9 mph 17.3 mph N/A   Mostly Cloudy
3:53 PM 78.1 °F 48.9 °F 36% 30.08 in 10.0 mi SW 10.4 mph 23.0 mph N/A   Scattered Clouds
4:53 PM 80.1 °F 48.9 °F 34% 30.07 in 10.0 mi SSW 11.5 mph 19.6 mph N/A   Clear
5:53 PM 78.1 °F 50.0 °F 37% 30.07 in 10.0 mi South 11.5 mph - N/A   Partly Cloudy
6:53 PM 77.0 °F 51.1 °F 40% 30.07 in 10.0 mi SSW 8.1 mph - N/A   Clear
7:53 PM 72.0 °F 51.1 °F 48% 30.08 in 10.0 mi South 5.8 mph - N/A   Clear
8:53 PM 70.0 °F 53.1 °F 55% 30.10 in 10.0 mi South 16.1 mph - N/A   Clear
9:53 PM 66.9 °F 53.1 °F 61% 30.12 in 10.0 mi South 9.2 mph - N/A   Clear
10:53 PM 64.9 °F 55.0 °F 70% 30.12 in 10.0 mi South 8.1 mph - N/A   Clear
11:53 PM 64.0 °F 55.9 °F 75% 30.13 in 10.0 mi South 8.1 mph - N/A   Clear